Flag for U.S.A. Weather past 2 weeks in Naples, Florida, U.S.A.

Now
78 °F

Clear.


Feels Like: 81 °F
Forecast: 80 / 91 °F
Wind: 3 mph from Northeast

Location: Naples Municipal

Current Time: Aug 23, 2014 at 2:16:19 AM

Latest Report: Aug 23, 2014 at 12:53 AM


Visibility: 10 mi

Pressure: 29.99 "Hg

Humidity: 90%

Dew point: 75 °F

Location of NaplesLocation

Historic Weather in Naples — Graph

°F

Naples temperature yesterday

Maximum temperature yesterday: 92 °F (at 12:53 PM)
Minimum temperature yesterday: 79 °F (at 9:53 PM)
Average temperature yesterday: 86 °F

Past Weeks' High & Low Weather Summary

 TemperatureHumidityPressure
High93 °F (Aug 20, 12:53 PM)100% (Aug 8, 4:53 AM)30.12 "Hg (Aug 8, 4:53 AM)
Low73 °F (Aug 15, 7:53 PM)47% (Aug 21, 1:53 PM)29.97 "Hg (Aug 8, 3:53 AM)
Average84 °F85%30.03 "Hg
* Reported Aug 8 12:53 AM — Aug 23 12:53 AM, Naples, Weather by CustomWeather, © 2014

Note: Actual official high and low records may vary slightly from our data, if they occured in-between our weather recording intervals... More about our weather records

Advertising

Naples weather history for previous 24 hours

 ConditionsComfort  
Time TempWeatherWind HumidityBarometerVisibility
12:53 AM
Aug 23
78 °FClear.3 mph90%29.99 "Hg10 mi
11:53 PM
Aug 22
80 °FClear.No wind85%29.99 "Hg10 mi
10:53 PM80 °FClear.No wind81%30.00 "Hg10 mi
9:53 PM79 °FClear.No wind84%30.02 "Hg10 mi
8:53 PM80 °FPartly sunny.9 mph79%30.03 "Hg10 mi
7:53 PM81 °FThundershowers. Partly sunny.3 mph85%29.98 "Hg10 mi
7:00 PM80 °FThundershowers. Passing clouds.3 mph85%29.99 "Hg10 mi
5:59 PM83 °FThunderstorms. Partly sunny.20 mph85%29.98 "Hg1 mi
4:53 PM92 °FScattered clouds.10 mph60%29.98 "Hg10 mi
3:53 PM91 °FScattered clouds.8 mph61%30.00 "Hg10 mi
2:53 PM92 °FScattered clouds.10 mph60%30.02 "Hg10 mi
1:53 PM91 °FScattered clouds.9 mph57%30.03 "Hg10 mi
12:53 PM92 °FPassing clouds.No wind52%30.06 "Hg10 mi
11:53 AM90 °FPassing clouds.7 mph57%30.08 "Hg10 mi
10:53 AM89 °FSunny.5 mph63%30.08 "Hg10 mi
9:53 AM86 °FSunny.7 mph72%30.07 "Hg10 mi
8:53 AM83 °FSunny.No wind79%30.07 "Hg10 mi
Weather by CustomWeather, © 2014

See weather overviewHow to use our weather pages